Location: Brookfield Center
(41.2406°N, 80.5579°W)
Time: 06:39:53
(UTC+00:00)

ATLAS 3B R/B - Pass Details

Date: 18 January 2020
Orbit: 1020 x 1175 km, 63.8° (Epoch: 20 February)

Event Time Altitude Azimuth Distance (km) Brightness Sun altitude
Exits shadow 10:59:54 - 339° (NNW) 3,071 4.8 -19.4°
Reaches altitude 10° 11:00:39 10° 343° (NNW) 2,853 4.7 -19.2°
Maximum altitude 11:06:12 26° 38° (NE) 1,939 4.3 -18.2°
Drops below altitude 10° 11:11:52 10° 94° (E) 2,926 6.3 -17.2°
Sets 11:15:04 0° 106° (ESE) 3,908 7.5 -16.6°
